| time (UTC) | temp C | wind direction | speed KPH | gust KPH | rain 1hr cm | rain 24hr cm | rain mn cm | humidity % | barometer mb |
| 20260505094346 | 8 | 178 | 0.0 | 0.0 | 0.00 | 0.00 | 0.00 | 92 | 1007.9 |
| 20260505092907 | 8 | 178 | 0.0 | 3.2 | 0.00 | 0.00 | 0.00 | 92 | 1007.9 |
| 20260505092342 | 8 | 178 | 0.0 | 3.2 | 0.00 | 0.00 | 0.00 | 92 | 1007.9 |
| 20260505090908 | 8 | 178 | 0.0 | 0.0 | 0.00 | 0.00 | 0.00 | 91 | 1008.0 |
| 20260505085909 | 8 | 178 | 0.0 | 1.6 | 0.00 | 0.00 | 0.00 | 91 | 1007.9 |
| 20260505084905 | 8 | 178 | 0.0 | 3.2 | 0.00 | 0.00 | 0.00 | 91 | 1007.9 |
| 20260505083904 | 9 | 178 | 0.0 | 0.0 | 0.00 | 0.00 | 0.00 | 91 | 1007.9 |
| 20260505083348 | 9 | 178 | 0.0 | 1.6 | 0.00 | 0.00 | 0.00 | 90 | 1008.0 |
| 20260505081903 | 9 | 178 | 0.0 | 1.6 | 0.00 | 0.00 | 0.00 | 91 | 1008.0 |
| 20260505080904 | 9 | 178 | 0.0 | 1.6 | 0.00 | 0.00 | 0.00 | 91 | 1008.0 |
| 20260505080342 | 9 | 178 | 1.6 | 3.2 | 0.00 | 0.00 | 0.00 | 91 | 1008.1 |
| 20260505074902 | 9 | 178 | 0.0 | 3.2 | 0.00 | 0.00 | 0.00 | 91 | 1008.1 |
| 20260505073902 | 9 | 178 | 1.6 | 3.2 | 0.00 | 0.00 | 0.00 | 91 | 1008.2 |
| 20260505072903 | 9 | 178 | 1.6 | 4.8 | 0.00 | 0.00 | 0.00 | 91 | 1008.0 |
| 20260505071903 | 9 | 178 | 0.0 | 3.2 | 0.00 | 0.00 | 0.00 | 90 | 1008.1 |
| 20260505070906 | 9 | 178 | 0.0 | 3.2 | 0.00 | 0.00 | 0.00 | 90 | 1008.1 |
| 20260505065901 | 9 | 178 | 0.0 | 3.2 | 0.00 | 0.00 | 0.00 | 89 | 1008.1 |
| 20260505064900 | 9 | 178 | 1.6 | 3.2 | 0.00 | 0.00 | 0.00 | 89 | 1008.2 |
| 20260505063900 | 9 | 178 | 1.6 | 3.2 | 0.00 | 0.00 | 0.00 | 89 | 1008.2 |
| 20260505062856 | 9 | 178 | 1.6 | 3.2 | 0.00 | 0.00 | 0.00 | 88 | 1008.2 |
| 20260505061854 | 9 | 178 | 0.0 | 3.2 | 0.00 | 0.00 | 0.00 | 88 | 1008.3 |
| 20260505060855 | 9 | 178 | 1.6 | 3.2 | 0.00 | 0.00 | 0.00 | 88 | 1008.3 |
| 20260505055855 | 10 | 178 | 1.6 | 3.2 | 0.00 | 0.00 | 0.00 | 87 | 1008.4 |
| 20260505054855 | 10 | 178 | 1.6 | 3.2 | 0.00 | 0.00 | 0.00 | 87 | 1008.5 |
| 20260505054333 | 10 | 178 | 1.6 | 3.2 | 0.00 | 0.00 | 0.00 | 87 | 1008.5 |
| 20260505052855 | 10 | 178 | 0.0 | 3.2 | 0.00 | 0.00 | 0.00 | 86 | 1008.6 |
| 20260505051854 | 10 | 178 | 1.6 | 3.2 | 0.00 | 0.00 | 0.00 | 86 | 1008.6 |
| 20260505051339 | 10 | 178 | 1.6 | 3.2 | 0.00 | 0.00 | 0.00 | 86 | 1008.6 |
| 20260505040848 | 11 | 178 | 0.0 | 0.0 | 0.00 | 0.00 | 0.00 | 83 | 1008.9 |
| 20260505035846 | 11 | 178 | 0.0 | 0.0 | 0.00 | 0.00 | 0.00 | 83 | 1008.9 |
| 20260505034847 | 11 | 178 | 0.0 | 1.6 | 0.00 | 0.00 | 0.00 | 82 | 1008.9 |
| 20260505033839 | 11 | 178 | 0.0 | 1.6 | 0.00 | 0.00 | 0.00 | 81 | 1008.8 |
| 20260505033316 | 11 | 178 | 0.0 | 1.6 | 0.00 | 0.00 | 0.00 | 80 | 1008.9 |
| 20260505031838 | 11 | 178 | 0.0 | 1.6 | 0.00 | 0.00 | 0.00 | 80 | 1008.8 |
| 20260505030839 | 11 | 178 | 0.0 | 1.6 | 0.00 | 0.00 | 0.00 | 78 | 1008.8 |
| 20260505025837 | 12 | 178 | 0.0 | 1.6 | 0.00 | 0.00 | 0.00 | 78 | 1008.8 |
| 20260505024837 | 12 | 178 | 0.0 | 1.6 | 0.00 | 0.00 | 0.00 | 77 | 1008.7 |
| 20260505023838 | 12 | 178 | 0.0 | 1.6 | 0.00 | 0.00 | 0.00 | 76 | 1008.8 |
| 20260505023312 | 12 | 178 | 0.0 | 3.2 | 0.00 | 0.00 | 0.00 | 74 | 1008.9 |
| 20260505022317 | 12 | 178 | 0.0 | 3.2 | 0.00 | 0.00 | 0.00 | 74 | 1009.0 |
| 20260505020832 | 13 | 178 | 0.0 | 3.2 | 0.00 | 0.00 | 0.00 | 72 | 1008.9 |
| 20260505015831 | 13 | 178 | 0.0 | 1.6 | 0.00 | 0.00 | 0.00 | 71 | 1008.8 |
| 20260505014832 | 13 | 178 | 0.0 | 3.2 | 0.00 | 0.00 | 0.00 | 70 | 1008.7 |
| 20260505013830 | 13 | 178 | 0.0 | 3.2 | 0.00 | 0.00 | 0.00 | 68 | 1008.8 |
| 20260505012829 | 14 | 178 | 0.0 | 1.6 | 0.00 | 0.00 | 0.00 | 67 | 1008.6 |
| 20260505012750 | 14 | 178 | 0.0 | 4.8 | 0.00 | 0.00 | 0.00 | 65 | 1008.5 |
| 20260505010828 | 15 | 178 | 1.6 | 8.0 | 0.00 | 0.00 | 0.00 | 64 | 1008.3 |
| 20260505005829 | 15 | 178 | 1.6 | 6.4 | 0.00 | 0.00 | 0.00 | 64 | 1008.1 |
| 20260505004830 | 15 | 178 | 0.0 | 3.2 | 0.00 | 0.00 | 0.00 | 63 | 1008.0 |
| 20260505003825 | 15 | 178 | 1.6 | 4.8 | 0.00 | 0.00 | 0.00 | 62 | 1007.9 |
| 20260505002826 | 15 | 178 | 1.6 | 6.4 | 0.00 | 0.00 | 0.00 | 61 | 1007.7 |
| 20260505001822 | 16 | 178 | 1.6 | 4.8 | 0.00 | 0.00 | 0.00 | 60 | 1007.6 |
| 20260505000822 | 16 | 178 | 1.6 | 9.7 | 0.00 | 0.00 | 0.00 | 59 | 1007.4 |
| 20260504235823 | 16 | 267 | 1.6 | 3.2 | 0.00 | 0.00 | 0.00 | 59 | 1007.2 |
| 20260504234824 | 17 | 267 | 0.0 | 4.8 | 0.00 | 0.00 | 0.00 | 58 | 1007.1 |
| 20260504233824 | 17 | 267 | 1.6 | 8.0 | 0.00 | 0.00 | 0.00 | 56 | 1006.9 |
| 20260504232822 | 17 | 188 | 1.6 | 6.4 | 0.00 | 0.00 | 0.00 | 54 | 1006.7 |
| 20260504231823 | 18 | 336 | 1.6 | 16.1 | 0.00 | 0.00 | 0.00 | 53 | 1006.5 |
| 20260504230817 | 18 | 188 | 3.2 | 8.0 | 0.00 | 0.00 | 0.00 | 51 | 1006.3 |
| 20260504225817 | 18 | 185 | 3.2 | 12.9 | 0.00 | 0.00 | 0.00 | 50 | 1006.3 |
| 20260504224816 | 18 | 213 | 4.8 | 14.5 | 0.00 | 0.00 | 0.00 | 50 | 1006.2 |
| 20260504223818 | 18 | 189 | 1.6 | 6.4 | 0.00 | 0.00 | 0.00 | 49 | 1006.2 |
| 20260504222816 | 19 | 31 | 1.6 | 9.7 | 0.00 | 0.00 | 0.00 | 48 | 1006.1 |
| 20260504221817 | 19 | 179 | 3.2 | 11.3 | 0.00 | 0.00 | 0.00 | 48 | 1006.1 |
| 20260504220817 | 20 | 170 | 4.8 | 11.3 | 0.00 | 0.00 | 0.00 | 47 | 1006.2 |
| 20260504220731 | 20 | 170 | 4.8 | 14.5 | 0.00 | 0.00 | 0.00 | 46 | 1006.0 |
| 20260504215732 | 21 | 190 | 3.2 | 16.1 | 0.00 | 0.00 | 0.00 | 44 | 1006.1 |
| 20260504214725 | 21 | 308 | 4.8 | 12.9 | 0.00 | 0.00 | 0.00 | 37 | 1006.0 |
| 20260504213246 | 21 | 190 | 1.6 | 6.4 | 0.00 | 0.00 | 0.00 | 37 | 1006.1 |
| 20260504211810 | 21 | 190 | 1.6 | 6.4 | 0.00 | 0.00 | 0.00 | 35 | 1006.0 |
| 20260504210809 | 21 | 191 | 3.2 | 9.7 | 0.00 | 0.00 | 0.00 | 36 | 1006.0 |
| 20260504205813 | 21 | 189 | 1.6 | 11.3 | 0.00 | 0.00 | 0.00 | 36 | 1006.1 |
| 20260504204811 | 22 | 180 | 3.2 | 11.3 | 0.00 | 0.00 | 0.00 | 36 | 1005.8 |
| 20260504203811 | 22 | 144 | 3.2 | 12.9 | 0.00 | 0.00 | 0.00 | 37 | 1006.1 |
| 20260504203245 | 22 | 175 | 6.4 | 11.3 | 0.00 | 0.00 | 0.00 | 35 | 1006.1 |
| 20260504201811 | 22 | 246 | 3.2 | 11.3 | 0.00 | 0.00 | 0.00 | 37 | 1006.1 |
| 20260504200805 | 21 | 235 | 4.8 | 12.9 | 0.00 | 0.00 | 0.00 | 37 | 1006.2 |
| 20260504195803 | 21 | 220 | 4.8 | 14.5 | 0.00 | 0.00 | 0.00 | 36 | 1006.3 |
| 20260504195242 | 21 | 270 | 4.8 | 12.9 | 0.00 | 0.00 | 0.00 | 35 | 1006.2 |
| 20260504194724 | 21 | 245 | 3.2 | 11.3 | 0.00 | 0.00 | 0.00 | 36 | 1006.3 |
| 20260504192803 | 22 | 238 | 3.2 | 9.7 | 0.00 | 0.00 | 0.00 | 36 | 1006.3 |
| 20260504191801 | 22 | 269 | 4.8 | 17.7 | 0.00 | 0.00 | 0.00 | 36 | 1006.3 |
| 20260504191155 | 21 | 298 | 4.8 | 17.7 | 0.00 | 0.00 | 0.00 | 36 | 1006.7 |
| 20260504190834 | 22 | 234 | 3.2 | 9.7 | 0.00 | 0.00 | 0.00 | 37 | 1006.5 |
| 20260504184803 | 22 | 189 | 4.8 | 16.1 | 0.00 | 0.00 | 0.00 | 36 | 1006.6 |
| 20260504183805 | 22 | 273 | 3.2 | 8.0 | 0.00 | 0.00 | 0.00 | 38 | 1006.6 |
| 20260504182801 | 21 | 236 | 4.8 | 19.3 | 0.00 | 0.00 | 0.00 | 37 | 1006.8 |
| 20260504181803 | 21 | 271 | 3.2 | 12.9 | 0.00 | 0.00 | 0.00 | 37 | 1006.9 |
| 20260504180800 | 21 | 138 | 3.2 | 11.3 | 0.00 | 0.00 | 0.00 | 38 | 1007.0 |
| 20260504175800 | 21 | 263 | 3.2 | 11.3 | 0.00 | 0.00 | 0.00 | 40 | 1007.1 |
| 20260504174800 | 21 | 233 | 4.8 | 16.1 | 0.00 | 0.00 | 0.00 | 38 | 1007.2 |
| 20260504173802 | 21 | 268 | 4.8 | 22.5 | 0.00 | 0.00 | 0.00 | 38 | 1007.3 |
| 20260504172801 | 21 | 257 | 3.2 | 12.9 | 0.00 | 0.00 | 0.00 | 39 | 1007.4 |
| 20260504171759 | 20 | 272 | 4.8 | 11.3 | 0.00 | 0.00 | 0.00 | 39 | 1007.5 |
| 20260504170800 | 20 | 264 | 3.2 | 12.9 | 0.00 | 0.00 | 0.00 | 39 | 1007.6 |
| 20260504160247 | 18 | 273 | 6.4 | 17.7 | 0.00 | 0.00 | 0.00 | 39 | 1008.4 |
| 20260504150759 | 17 | 182 | 6.4 | 19.3 | 0.00 | 0.00 | 0.00 | 42 | 1008.9 |
| 20260504140749 | 16 | 185 | 4.8 | 12.9 | 0.00 | 0.00 | 0.00 | 47 | 1009.5 |
| 20260504130745 | 13 | 277 | 3.2 | 9.7 | 0.00 | 0.00 | 0.00 | 51 | 1010.1 |